User: anonymous   Login
Location: Muenchen
(48.1800°N, 11.5800°E)
Time: 21:17:14
(UTC+02:00)
Language:

Cosmos 2233 Rocket - Orbit

View from above orbital plane
View from above orbital plane
View from above satellite
View from above satellite

Ground track
Ground track

The orbit data is extracted from the following two-line orbital elements,

1 22488U 93008B   18170.96852160 +.00000129 +00000-0 +11353-3 0  9996
2 22488 082.9412 164.7413 0023901 275.0438 139.2599 13.77731812274610
Epoch (UTC): 19 June 2018 23:14:40
Eccentricity: 0.0023901
inclination: 82.9412°
perigee height: 954 km
apogee height: 989 km
right ascension of ascending node: 164.7413°
argument of perigee: 275.0438°
revolutions per day: 13.77731812
mean anomaly at epoch: 139.2599°
orbit number at epoch: 27461

The dashed part of the orbit path shows where the satellite is in the earth's shadow,  

DLR